STARLINK-1664, 46553

Orbit data source: Space-Track

STARLINK-1664, 46553 is a payload satellite owned by SpaceX/Seattle (US) in LEO that was launched on Tue, 06 Oct 2020 UTC via an FALCON 9 launch vehicle from the Air Force Eastern Test Range (AFETR). Payload-class satellites include a variety of spacecraft equipped with specific instruments for various scientific and technological missions. These include communications satellites like Starlink; space stations such as the ISS; scientific satellites like the Hubble; Earth observation satellites from companies like Planet Labs, Umbra, and HawkEye 360; GPS; miniature CubeSats for education and research; and military/defense satellites.

Loading next visibility...
Identifier
46553, 2020-070X
Orbit
LEO
Country
Flag of USUS
Related business
Manufacturer
SpaceX/Seattle
Mission
Operational Commercial Communications
Bus & Motor
STARLINK, Unknown motor
Mass
260 kg wet, ~248 kg dry
Launch date (UTC)
2020-10-06 (5 years ago)
Launch vehicle
FALCON 9
Launch site
Air Force Eastern Test Range (AFETR)
Object type
Payload
Rocket body
Debris
Shape & HBR
Box + 1 Pan, 10.1 m
Radar Cross Section
13.562 m², Large (>1 m²)

Expand to show TLE details & history
Last TLE update: 14 hours ago

TLE from 14 hours ago
0 STARLINK-1664
1 46553U 20070X   25310.49505816  .00029901  00000-0  20159-2 0  9991
2 46553  53.0548 339.6705 0001614  93.8019 266.3154 15.06434308281355
Epoch: 2025-11-06T11:52Z
TLE epoch observation values (Epoch: 2025-11-06T11:52:53.025Z)
Latitude
-0.00004°
Longitude
115.49697°
Altitude
548.058 km
Speed
7.589 km/s
True Right ascension
22h 38m 40s
True Declination
0° 00' 00"
Sunlit
Object was in full shadow at epoch
Visualization orbit readout
Latitude
Unknown
Longitude
Unknown
Altitude
Unknown
Speed
Unknown
Apparent Right ascension
Unknown
Apparent Declination
Unknown
Sunlit
N/A
Visualization observer readout
Local Sidereal Time
22:11:22
Azimuth
Unknown
Elevation
Unknown
Doppler factor
Unknown
Orbital elements
Apogee altitude
548.495 km
Perigee altitude
546.259 km
Semi-major axis
6,925.514 km
Eccentricity
0.00016
Inclination
53.0548°
RAAN
339.6705°
Arg. of periapsis
93.8019°
True anomaly
266.29694°
Mean anomaly
266.3154°
Eccentric anomaly
266.30617°
Mean motion
3.76587 °/min
Orbital period
95.6 mins
BSTAR
0.0020159
Loading maneuver chart data...
Computing Atmospheric mass density...

Documentation

Showing up to 5 results
|